• In Deutschland
  • Länderverzeichnis
  • Für 7 Tage
  • Wassertemperatur
  • Satellitenkarten
  • Wetterkarte
  • Widgets
  • user-avatar
    Anmelden

    Stündliche Wetter Darmstadt

    Heute, 20 Oktober, Freitag

    Zeit Temperatur Niederschläge Wind Luftdruck Luftfeuchtigkeit
    00:00 +16°C° 0 mm 1 m/S 746 mmHg 67%
    01:00 +16°C° 0 mm 1 m/S 746 mmHg 67%
    02:00 +16°C° 0 mm 1 m/S 746 mmHg 68%
    03:00 +15°C° 0 mm 1 m/S 746 mmHg 68%
    04:00 +15°C° 0 mm 1 m/S 746 mmHg 68%
    05:00 +15°C° 0 mm 2 m/S 746 mmHg 69%
    06:00 +15°C° 0 mm 2 m/S 746 mmHg 69%
    07:00 +15°C° 0 mm 2 m/S 746 mmHg 67%
    08:00 +15°C° 0,3 mm 2 m/S 746 mmHg 68%
    09:00 +16°C° 0,3 mm 3 m/S 746 mmHg 69%
    10:00 +16°C° 0,3 mm 3 m/S 746 mmHg 70%
    11:00 +17°C° 0,1 mm 4 m/S 747 mmHg 71%
    12:00 +16°C° 0,1 mm 5 m/S 747 mmHg 72%
    13:00 +17°C° 0,1 mm 5 m/S 747 mmHg 73%
    14:00 +16°C° 0 mm 5 m/S 747 mmHg 71%
    15:00 +16°C° 0 mm 5 m/S 747 mmHg 68%
    16:00 +16°C° 0 mm 5 m/S 747 mmHg 66%
    17:00 +15°C° 0 mm 4 m/S 748 mmHg 69%
    18:00 +14°C° 0 mm 3 m/S 748 mmHg 71%
    19:00 +13°C° 0 mm 3 m/S 748 mmHg 74%
    20:00 +13°C° 0 mm 2 m/S 748 mmHg 76%
    21:00 +13°C° 0 mm 2 m/S 749 mmHg 79%
    22:00 +12°C° 0 mm 2 m/S 749 mmHg 81%
    23:00 +12°C° 0 mm 2 m/S 749 mmHg 83%

    Morgen, 21 Oktober, Samstag

    Zeit Temperatur Niederschläge Wind Luftdruck Luftfeuchtigkeit
    00:00 +12°C° 0 mm 2 m/S 749 mmHg 86%
    01:00 +12°C° 0 mm 2 m/S 749 mmHg 88%
    02:00 +12°C° 0 mm 2 m/S 749 mmHg 89%
    03:00 +12°C° 0 mm 2 m/S 749 mmHg 90%
    04:00 +12°C° 0 mm 2 m/S 748 mmHg 90%
    05:00 +12°C° 0 mm 2 m/S 748 mmHg 91%
    06:00 +13°C° 0 mm 2 m/S 748 mmHg 91%
    07:00 +13°C° 0 mm 2 m/S 748 mmHg 92%
    08:00 +13°C° 0 mm 3 m/S 748 mmHg 86%
    09:00 +16°C° 0 mm 3 m/S 748 mmHg 81%
    10:00 +17°C° 0 mm 4 m/S 748 mmHg 76%
    11:00 +18°C° 0,1 mm 4 m/S 748 mmHg 73%
    12:00 +19°C° 0,1 mm 4 m/S 748 mmHg 70%
    13:00 +20°C° 0,1 mm 4 m/S 748 mmHg 67%
    14:00 +19°C° 0,5 mm 4 m/S 748 mmHg 73%
    15:00 +18°C° 0,5 mm 4 m/S 747 mmHg 79%
    16:00 +16°C° 0,5 mm 3 m/S 747 mmHg 85%
    17:00 +16°C° 0,4 mm 3 m/S 748 mmHg 84%
    18:00 +14°C° 0,4 mm 3 m/S 748 mmHg 84%
    19:00 +13°C° 0,4 mm 3 m/S 748 mmHg 83%
    20:00 +13°C° 0,3 mm 4 m/S 749 mmHg 84%
    21:00 +12°C° 0,3 mm 4 m/S 749 mmHg 85%
    22:00 +12°C° 0,3 mm 4 m/S 749 mmHg 86%
    23:00 +11°C° 0,1 mm 4 m/S 750 mmHg 86%

    übermorgen, 22 Oktober, Sonntag

    Zeit Temperatur Niederschläge Wind Luftdruck Luftfeuchtigkeit
    00:00 +11°C° 0,1 mm 4 m/S 750 mmHg 86%
    01:00 +11°C° 0,1 mm 4 m/S 750 mmHg 86%
    02:00 +10°C° 0 mm 4 m/S 750 mmHg 86%
    03:00 +10°C° 0 mm 4 m/S 750 mmHg 85%
    04:00 +10°C° 0 mm 4 m/S 749 mmHg 85%
    05:00 +8°C° 0 mm 4 m/S 749 mmHg 85%
    06:00 +8°C° 0 mm 4 m/S 749 mmHg 85%
    07:00 +8°C° 0 mm 4 m/S 749 mmHg 85%
    08:00 +8°C° 0 mm 4 m/S 749 mmHg 82%
    09:00 +9°C° 0 mm 5 m/S 749 mmHg 79%
    10:00 +9°C° 0 mm 5 m/S 749 mmHg 76%
    11:00 +9°C° 0,1 mm 5 m/S 749 mmHg 74%
    12:00 +10°C° 0,1 mm 5 m/S 749 mmHg 72%
    13:00 +10°C° 0,1 mm 5 m/S 749 mmHg 70%
    14:00 +10°C° 0,1 mm 5 m/S 749 mmHg 70%
    15:00 +10°C° 0,1 mm 5 m/S 749 mmHg 69%
    16:00 +10°C° 0,1 mm 5 m/S 748 mmHg 69%
    17:00 +10°C° 0 mm 4 m/S 749 mmHg 72%
    18:00 +10°C° 0 mm 4 m/S 749 mmHg 75%
    19:00 +8°C° 0 mm 4 m/S 749 mmHg 78%
    20:00 +8°C° 0,1 mm 4 m/S 750 mmHg 79%
    21:00 +8°C° 0,1 mm 4 m/S 750 mmHg 80%
    22:00 +8°C° 0,1 mm 4 m/S 750 mmHg 81%
    23:00 +8°C° 0,1 mm 4 m/S 750 mmHg 81%

    23 Oktober, Montag

    Zeit Temperatur Niederschläge Wind Luftdruck Luftfeuchtigkeit
    00:00 +8°C° 0,1 mm 4 m/S 749 mmHg 82%
    01:00 +8°C° 0,1 mm 4 m/S 749 mmHg 82%
    02:00 +8°C° 0,4 mm 4 m/S 749 mmHg 84%
    03:00 +8°C° 0,4 mm 4 m/S 749 mmHg 86%
    04:00 +8°C° 0,4 mm 4 m/S 749 mmHg 87%
    05:00 +8°C° 0,2 mm 4 m/S 749 mmHg 86%
    06:00 +8°C° 0,2 mm 4 m/S 749 mmHg 85%
    07:00 +8°C° 0,2 mm 5 m/S 749 mmHg 84%
    08:00 +9°C° 0 mm 5 m/S 749 mmHg 81%
    09:00 +9°C° 0 mm 5 m/S 750 mmHg 79%
    10:00 +10°C° 0 mm 5 m/S 750 mmHg 76%
    11:00 +10°C° 0 mm 5 m/S 750 mmHg 75%
    12:00 +10°C° 0 mm 5 m/S 750 mmHg 74%
    13:00 +12°C° 0 mm 4 m/S 750 mmHg 72%
    14:00 +12°C° 0,1 mm 4 m/S 750 mmHg 73%
    15:00 +12°C° 0,1 mm 4 m/S 750 mmHg 75%
    16:00 +12°C° 0,1 mm 4 m/S 750 mmHg 76%
    17:00 +12°C° 0,1 mm 3 m/S 751 mmHg 80%
    18:00 +11°C° 0,1 mm 3 m/S 751 mmHg 83%
    19:00 +11°C° 0,1 mm 3 m/S 751 mmHg 87%
    20:00 +10°C° 0,1 mm 3 m/S 751 mmHg 88%
    21:00 +10°C° 0,1 mm 2 m/S 751 mmHg 90%
    22:00 +10°C° 0,1 mm 2 m/S 751 mmHg 91%
    23:00 +10°C° 0,1 mm 2 m/S 751 mmHg 92%

    24 Oktober, Dienstag

    Zeit Temperatur Niederschläge Wind Luftdruck Luftfeuchtigkeit
    00:00 +10°C° 0,1 mm 1 m/S 752 mmHg 93%
    01:00 +10°C° 0,1 mm 1 m/S 752 mmHg 93%
    02:00 +10°C° 0 mm 1 m/S 752 mmHg 94%
    03:00 +9°C° 0 mm 0 m/S 752 mmHg 94%
    04:00 +9°C° 0 mm 0 m/S 752 mmHg 94%
    05:00 +9°C° 0 mm 0 m/S 753 mmHg 95%
    06:00 +9°C° 0 mm 0 m/S 753 mmHg 95%
    07:00 +10°C° 0 mm 1 m/S 753 mmHg 95%
    08:00 +11°C° 0 mm 1 m/S 754 mmHg 93%
    09:00 +12°C° 0 mm 1 m/S 754 mmHg 90%
    10:00 +13°C° 0 mm 1 m/S 755 mmHg 88%
    11:00 +14°C° 0 mm 1 m/S 755 mmHg 85%
    12:00 +15°C° 0 mm 1 m/S 755 mmHg 82%
    13:00 +16°C° 0 mm 1 m/S 755 mmHg 79%
    14:00 +16°C° 0 mm 1 m/S 755 mmHg 80%
    15:00 +16°C° 0 mm 1 m/S 754 mmHg 81%
    16:00 +16°C° 0 mm 1 m/S 754 mmHg 81%
    17:00 +15°C° 0 mm 1 m/S 755 mmHg 84%
    18:00 +15°C° 0 mm 1 m/S 755 mmHg 87%
    19:00 +14°C° 0 mm 1 m/S 755 mmHg 89%
    20:00 +14°C° 0 mm 1 m/S 755 mmHg 90%
    21:00 +13°C° 0 mm 1 m/S 756 mmHg 91%
    22:00 +13°C° 0 mm 1 m/S 756 mmHg 92%
    23:00 +13°C° 0 mm 1 m/S 756 mmHg 93%

    25 Oktober, Mittwoch

    Zeit Temperatur Niederschläge Wind Luftdruck Luftfeuchtigkeit
    00:00 +13°C° 0 mm 1 m/S 756 mmHg 93%
    01:00 +12°C° 0 mm 1 m/S 756 mmHg 94%
    02:00 +12°C° 0 mm 1 m/S 756 mmHg 94%
    03:00 +12°C° 0 mm 1 m/S 756 mmHg 94%
    04:00 +11°C° 0 mm 1 m/S 756 mmHg 94%
    05:00 +11°C° 0 mm 1 m/S 756 mmHg 94%
    06:00 +11°C° 0 mm 1 m/S 756 mmHg 94%
    07:00 +11°C° 0 mm 1 m/S 756 mmHg 94%
    08:00 +12°C° 0 mm 1 m/S 756 mmHg 89%
    09:00 +13°C° 0 mm 1 m/S 756 mmHg 84%
    10:00 +14°C° 0 mm 1 m/S 756 mmHg 79%
    11:00 +16°C° 0 mm 1 m/S 756 mmHg 74%
    12:00 +18°C° 0 mm 1 m/S 756 mmHg 69%
    13:00 +18°C° 0 mm 2 m/S 756 mmHg 63%
    14:00 +18°C° 0 mm 2 m/S 755 mmHg 64%
    15:00 +18°C° 0 mm 2 m/S 755 mmHg 65%
    16:00 +17°C° 0 mm 2 m/S 755 mmHg 66%
    17:00 +16°C° 0 mm 2 m/S 755 mmHg 71%
    18:00 +15°C° 0 mm 2 m/S 755 mmHg 75%
    19:00 +13°C° 0 mm 2 m/S 756 mmHg 80%
    20:00 +13°C° 0 mm 2 m/S 756 mmHg 80%
    21:00 +12°C° 0 mm 2 m/S 756 mmHg 81%
    22:00 +12°C° 0 mm 1 m/S 756 mmHg 81%
    23:00 +11°C° 0 mm 1 m/S 756 mmHg 81%
    Mehr zeigen